Year,Month,Day,Hour,Minute,Value (Times are PST for temperature in C)
2007,06,27,00,00,13.80
2007,06,27,00,01,13.80
2007,06,27,00,02,13.80
2007,06,27,00,03,13.90
2007,06,27,00,04,13.90
2007,06,27,00,05,13.90
2007,06,27,00,06,13.90
2007,06,27,00,07,13.90
2007,06,27,00,08,13.90
2007,06,27,00,09,13.80
2007,06,27,00,10,13.80
2007,06,27,00,11,13.80
2007,06,27,00,12,13.70
2007,06,27,00,13,13.70
2007,06,27,00,14,13.70
2007,06,27,00,15,13.60
2007,06,27,00,16,13.60
2007,06,27,00,17,13.50
2007,06,27,00,18,13.50
2007,06,27,00,19,13.50
2007,06,27,00,20,13.40
2007,06,27,00,21,13.40
2007,06,27,00,22,13.30
2007,06,27,00,23,13.30
2007,06,27,00,24,13.20
2007,06,27,00,25,13.20
2007,06,27,00,26,13.10
2007,06,27,00,27,13.10
2007,06,27,00,28,13.10
2007,06,27,00,29,13.10
2007,06,27,00,30,13.00
2007,06,27,00,31,13.00
2007,06,27,00,32,13.00
2007,06,27,00,33,12.90
2007,06,27,00,34,12.90
2007,06,27,00,35,12.90
2007,06,27,00,36,12.90
2007,06,27,00,37,12.90
2007,06,27,00,38,12.90
2007,06,27,00,39,12.90
2007,06,27,00,40,12.90
2007,06,27,00,41,12.90
2007,06,27,00,42,12.90
2007,06,27,00,43,12.90
2007,06,27,00,44,12.90
2007,06,27,00,45,12.80
2007,06,27,00,46,12.80
2007,06,27,00,47,12.80
2007,06,27,00,48,12.90
2007,06,27,00,49,12.90
2007,06,27,00,50,12.90
2007,06,27,00,51,12.90
2007,06,27,00,52,12.90
2007,06,27,00,53,12.90
2007,06,27,00,54,12.90
2007,06,27,00,55,12.90
2007,06,27,00,56,12.90
2007,06,27,00,57,12.90
2007,06,27,00,58,12.90
2007,06,27,00,59,12.90
2007,06,27,01,00,12.90
2007,06,27,01,01,12.90
2007,06,27,01,02,12.90
2007,06,27,01,03,13.00
2007,06,27,01,04,13.10
2007,06,27,01,05,13.10
2007,06,27,01,06,13.10
2007,06,27,01,07,13.10
2007,06,27,01,08,13.10
2007,06,27,01,09,13.10
2007,06,27,01,10,13.10
2007,06,27,01,11,13.10
2007,06,27,01,12,13.10
2007,06,27,01,13,13.10
2007,06,27,01,14,13.10
2007,06,27,01,15,13.10
2007,06,27,01,16,13.10
2007,06,27,01,17,13.00
2007,06,27,01,18,13.00
